[[{"header":{"parameterUnit":"m.s-1","parameterCategory":1,"la1":30.2991,"la2":30.254,"lo1":-89.0895,"lo2":-89.0444,"dy":0.0017,"dx":0.0017,"nx":28,"ny":28,"refTime":"2026-03-04T03:00:00:Z","depth":0,"parameterNumber":2,"parameterNumberName":"U-component_of_WINDS"},"data":[0,0,0,0,0,0,0,0,0,0,0,0,0,0,0,0,0,0,0,0,0,0,0,0,0,0,0,0,0,0,0,0,0,0,0,0,0,0,0,0,0,0,0,0,0,0,0,0,0,0,0,0,0,0,0,0,0,0,-3.721,-3.721,0,-3.7283,-3.7283,-3.7284,-3.7243,-3.7241,-3.7239,-3.7237,-3.7314,-3.7318,-3.7322,0,0,0,0,0,0,0,0,0,0,0,0,0,-3.7038,-3.7042,-3.721,-3.721,-3.7211,-3.7282,-3.7283,-3.7284,-3.7243,-3.7241,-3.7238,-3.7236,-3.7313,-3.7317,-3.7322,0,0,0,0,0,0,0,0,0,0,0,0,0,-3.7112,-3.7043,-3.7209,-3.7199,-3.7199,-3.7282,-3.7283,-3.7285,-3.7244,-3.7241,-3.7238,-3.7235,-3.7311,-3.7317,-3.7323,-3.742,0,0,-3.7341,-3.7343,0,0,0,0,0,0,0,0,-3.7108,-3.7119,-3.72,-3.72,-3.72,-3.725,-3.7251,-3.733,-3.7245,-3.7227,-3.7237,-3.7233,-3.7295,-3.7302,-3.7323,-3.7424,-3.7427,-3.7341,-3.7345,-3.7347,-3.7349,0,0,0,0,0,0,0,-3.7103,-3.7115,-3.7238,-3.7201,-3.7201,-3.7193,-3.72,-3.7266,-3.7278,-3.7228,-3.7225,-3.7235,-3.7295,-3.7317,-3.7324,-3.7428,-3.7341,-3.7346,-3.735,-3.7352,-3.7616,-3.7619,0,0,0,0,0,0,-3.7098,-3.7111,-3.7236,-3.7241,-3.7146,-3.7198,-3.7206,-3.7237,-3.7277,-3.728,-3.7237,-3.7232,-3.7309,-3.7318,-3.7327,-3.7445,-3.7347,-3.7353,-3.7356,-3.7613,-3.7617,-3.762,0,0,0,0,0,0,-3.7095,-3.711,-3.7233,-3.7175,-3.719,-3.7204,-3.724,-3.7241,-3.7263,-3.7283,-3.7285,-3.7258,-3.7307,-3.7319,-3.7398,-3.7447,-3.7356,-3.7361,-3.7608,-3.7614,-3.7619,-3.7681,0,0,0,0,0,0,-3.709,-3.7109,-3.7145,-3.7176,-3.7194,-3.7302,-3.7243,-3.7244,-3.7273,-3.7267,-3.7303,-3.7306,-3.7305,-3.7389,-3.7404,-3.7454,-3.7366,-3.7604,-3.7611,-3.7617,-3.7675,-3.7688,-3.7699,0,0,0,0,0,-3.7084,-3.7159,-3.7147,-3.7162,-3.7239,-3.7305,-3.7314,-3.7311,-3.7277,-3.7314,-3.7328,-3.7305,-3.744,-3.7398,-3.7414,-3.7466,-3.7601,-3.7609,-3.7616,-3.7669,-3.7685,-3.7699,0,0,0,0,0,0,-3.7133,-3.7163,-3.7149,-3.7237,-3.7269,-3.7297,-3.7344,-3.7328,-3.737,-3.7363,-3.7358,-3.7367,-3.745,-3.7466,-3.7419,-3.7564,-3.7515,-3.7527,-3.755,-3.7565,-3.7577,-3.7571,-3.737,0,0,0,0,0,-3.7154,-3.7204,-3.7228,-3.7303,-3.732,-3.733,-3.7358,-3.7353,-3.7386,-3.7399,-3.7418,-3.7452,-3.7502,-3.7535,-3.7582,-3.7678,-3.7686,-3.7722,-3.7734,-3.7744,-3.7754,-3.7808,-3.7824,-3.7646,-3.7646,-3.7646,0,0,-3.7198,-3.7221,-3.7252,-3.7314,-3.7337,-3.7391,-3.7341,-3.7399,-3.7438,-3.7408,-3.7484,-3.75,-3.7537,-3.7625,-3.7665,-3.7641,-3.7805,-3.7754,-3.7762,-3.7766,-3.7817,-3.7834,-3.7849,-3.7651,-3.765,-3.7649,0,0,-3.7305,-3.7327,-3.7392,-3.7418,-3.7455,-3.7461,-3.7477,-3.7509,-3.7518,-3.7595,-3.7574,-3.7622,-3.7708,-3.7735,-3.7761,-3.7882,-3.7864,-3.7898,-3.7961,-3.8014,-3.8028,-3.8041,-3.8085,-3.8101,-3.7908,-3.7908,-3.7908,0,-3.7354,-3.7432,-3.7428,-3.7488,-3.7517,-3.7492,-3.756,-3.7585,-3.7636,-3.7657,-3.7629,-3.7738,-3.7761,-3.7857,-3.7887,-3.7908,-3.7928,-3.7893,-3.8026,-3.8039,-3.805,-3.8092,-3.8109,-3.7912,-3.7912,-3.7911,-3.7911,0,-3.7492,-3.7548,-3.7596,-3.7646,-3.7681,-3.7744,-3.7751,-3.7787,-3.778,-3.779,-3.7869,-3.7897,-3.795,-3.7973,-3.7966,-3.8069,-3.8053,-3.8026,-3.7977,-3.8071,-3.8111,-3.8127,-3.7918,-3.7916,-3.7915,-3.7914,0,0,-3.7629,-3.7678,-3.7696,-3.7719,-3.776,-3.7803,-3.7867,-3.7919,-3.795,-3.7987,-3.8041,-3.8116,-3.8093,-3.8122,-3.8119,-3.8165,-3.8261,-3.8133,-3.8134,-3.8156,-3.8377,-3.8397,-3.8415,-3.825,-3.8253,-3.8255,-3.8374,0,-3.7739,-3.7849,-3.7849,-3.7951,-3.8003,-3.7983,-3.8039,-3.8071,-3.8083,-3.813,-3.8143,-3.8197,-3.8161,-3.8179,-3.8224,-3.824,-3.8306,-3.8232,-3.8301,-3.8304,-3.8292,-3.8436,-3.8456,-3.8567,-3.839,-3.8392,-3.8394,0,-3.788,-3.7923,-3.803,-3.8066,-3.8087,-3.8138,-3.8186,-3.8231,-3.8268,-3.8274,-3.8308,-3.8299,-3.8366,-3.8316,-3.8409,-3.8359,-3.8388,-3.8401,-3.8405,-3.8411,-3.8354,-3.8446,-3.8602,-3.8619,-3.8419,-3.8417,-3.8415,0,-3.797,-3.8054,-3.813,-3.815,-3.8193,-3.8229,-3.8249,-3.8283,-3.8315,-3.8359,-3.838,-3.8431,-3.8459,-3.85,-3.8505,-3.8468,-3.86,-3.855,-3.8607,-3.8607,-3.8635,-3.8633,-3.8798,-3.8654,-3.8654,-3.8654,-3.8653,0,-3.8092,-3.8159,-3.8171,-3.8217,-3.8293,-3.8293,-3.8368,-3.8385,-3.8416,-3.8467,-3.8453,-3.8501,-3.8506,-3.8556,-3.8562,-3.8639,-3.8652,-3.8659,-3.866,-3.866,-3.8659,-3.8678,-3.8671,-3.8658,-3.8657,-3.8656,-3.8656,0,-3.8204,-3.8214,-3.8296,-3.8331,-3.8341,-3.8395,-3.8426,-3.8471,-3.8483,-3.8548,-3.8563,-3.8582,-3.8641,-3.8651,-3.8721,-3.8724,-3.8817,-3.881,-3.8804,-3.8803,-3.886,-3.8855,-3.9043,-3.9068,-3.8909,-3.891,-3.8911,0,-3.828,-3.8331,-3.8372,-3.8405,-3.8427,-3.848,-3.8513,-3.8517,-3.8553,-3.8601,-3.8641,-3.8698,-3.8744,-3.884,-3.8861,-3.8914,-3.8908,-3.8971,-3.8916,-3.8916,-3.891,-3.8906,-3.8912,-3.8981,-3.8982,-3.8984,-3.8985,0,-3.8415,-3.8419,-3.8466,-3.8518,-3.8558,-3.8598,-3.8636,-3.8664,-3.8673,-3.8714,-3.8774,-3.881,-3.8882,-3.894,-3.8994,-3.9016,-3.9003,-3.9003,-3.9019,-3.9019,-3.9014,-3.9018,-3.8832,-3.8998,-3.8996,-3.8995,-3.8995,-3.8994,-3.8512,-3.8557,-3.8594,-3.8648,-3.8678,-3.8715,-3.876,-3.8778,-3.8828,-3.8886,-3.8886,-3.8952,-3.8991,-3.9063,-3.9089,-3.9142,-3.9122,-3.9145,-3.9151,-3.9156,-3.9162,-3.9006,-3.9152,-3.9151,-3.9151,-3.9151,-3.915,0,-3.8646,-3.8669,-3.872,-3.8774,-3.8818,-3.8802,-3.8845,-3.8883,-3.8941,-3.8978,-3.9024,-3.9095,-3.9152,-3.9178,-3.9235,-3.9273,-3.9268,-3.9287,-3.9284,-3.929,-3.9176,-3.9157,-3.929,-3.929,-3.929,-3.929,-3.929,-3.929,-3.8721,-3.8797,-3.8806,-3.8898,-3.8921,-3.8985,-3.9011,-3.9046,-3.9076,-3.9155,-3.9202,-3.9219,-3.9253,-3.9312,-3.9365,-3.9371,-3.9393,-3.9415,-3.9419,-3.9312,-3.9298,-3.9284,-3.9266,-3.942,-3.942,-3.9528,-3.9529,-3.953]},{"header":{"parameterUnit":"m.s-1","parameterCategory":1,"la1":30.2991,"la2":30.254,"lo1":-89.0895,"lo2":-89.0444,"dy":0.0017,"dx":0.0017,"nx":28,"ny":28,"refTime":"2026-03-04T03:00:00:Z","depth":0,"parameterNumber":3,"parameterNumberName":"V-component_of_WINDS"},"data":[0,0,0,0,0,0,0,0,0,0,0,0,0,0,0,0,0,0,0,0,0,0,0,0,0,0,0,0,0,0,0,0,0,0,0,0,0,0,0,0,0,0,0,0,0,0,0,0,0,0,0,0,0,0,0,0,0,0,0.7395,0.7395,0,0.7448,0.7449,0.7449,0.755,0.7552,0.7554,0.7556,0.7605,0.7604,0.7603,0,0,0,0,0,0,0,0,0,0,0,0,0,0.7375,0.7374,0.7395,0.7395,0.7396,0.7448,0.7449,0.7449,0.755,0.7552,0.7555,0.7557,0.7605,0.7604,0.7603,0,0,0,0,0,0,0,0,0,0,0,0,0,0.7401,0.7374,0.7394,0.7452,0.7458,0.7448,0.7449,0.745,0.7549,0.7552,0.7555,0.7558,0.7605,0.7604,0.7603,0.7539,0,0,0.7601,0.76,0,0,0,0,0,0,0,0,0.7399,0.7402,0.7443,0.7448,0.7455,0.7496,0.746,0.7479,0.7549,0.7514,0.7556,0.7559,0.7565,0.7568,0.7571,0.7541,0.7543,0.7601,0.76,0.76,0.76,0,0,0,0,0,0,0,0.7397,0.74,0.7416,0.7444,0.7451,0.7474,0.7481,0.7464,0.7522,0.7518,0.7525,0.753,0.7569,0.7572,0.7573,0.7544,0.7601,0.76,0.76,0.7599,0.7465,0.7462,0,0,0,0,0,0,0.7388,0.7398,0.7414,0.7417,0.7434,0.7472,0.748,0.7479,0.7523,0.7533,0.7528,0.7535,0.7572,0.7574,0.7575,0.7504,0.76,0.7599,0.7599,0.7468,0.7464,0.7461,0,0,0,0,0,0,0.7387,0.7388,0.7412,0.741,0.7414,0.7469,0.7468,0.7479,0.7482,0.7531,0.7541,0.752,0.7574,0.7577,0.7548,0.7507,0.7599,0.7598,0.7471,0.7467,0.7462,0.7359,0,0,0,0,0,0,0.7386,0.7387,0.7365,0.7408,0.7414,0.7384,0.7465,0.7478,0.7481,0.7491,0.7526,0.7535,0.7577,0.7549,0.7547,0.7507,0.7597,0.7475,0.7469,0.7464,0.7366,0.7352,0.7339,0,0,0,0,0,0.7385,0.7332,0.7363,0.7364,0.7387,0.7382,0.7385,0.7436,0.7477,0.7454,0.7486,0.7534,0.7512,0.7545,0.7544,0.7503,0.7478,0.7471,0.7464,0.7373,0.7354,0.7339,0,0,0,0,0,0,0.7279,0.7338,0.7374,0.7333,0.7352,0.7399,0.7371,0.7415,0.7421,0.7429,0.749,0.7497,0.7461,0.7479,0.7515,0.7444,0.7502,0.7495,0.7433,0.7416,0.7403,0.7399,0.7597,0,0,0,0,0,0.7252,0.7244,0.7296,0.7255,0.7263,0.7315,0.7315,0.7353,0.7374,0.7382,0.7411,0.7428,0.7425,0.7422,0.7422,0.737,0.7379,0.7341,0.7327,0.7316,0.7308,0.7283,0.7267,0.7438,0.7438,0.7438,0,0,0.7194,0.7225,0.7216,0.7235,0.7254,0.7244,0.7321,0.7307,0.73,0.7379,0.7355,0.7377,0.74,0.7359,0.7343,0.7373,0.7264,0.7307,0.7297,0.7297,0.7274,0.7258,0.7244,0.7433,0.7434,0.7435,0,0,0.7083,0.7106,0.7076,0.7094,0.7123,0.7158,0.715,0.7191,0.721,0.7187,0.7246,0.7238,0.7231,0.7246,0.7252,0.7148,0.7193,0.7146,0.7074,0.7048,0.7035,0.7023,0.6986,0.6972,0.7139,0.7138,0.7138,0,0.7007,0.6996,0.7054,0.7037,0.7043,0.7117,0.7086,0.71,0.7125,0.7127,0.7162,0.7157,0.7177,0.7141,0.7116,0.7119,0.7112,0.7142,0.7032,0.7021,0.7011,0.6977,0.6963,0.7133,0.7133,0.7134,0.7134,0,0.6901,0.6893,0.6864,0.689,0.6893,0.6869,0.6922,0.6917,0.6955,0.6986,0.6962,0.6989,0.6997,0.6991,0.7026,0.696,0.6979,0.7021,0.7082,0.6988,0.6957,0.6944,0.7124,0.7126,0.7128,0.713,0,0,0.6725,0.6785,0.6773,0.6787,0.6824,0.6818,0.6796,0.6806,0.6801,0.6817,0.68,0.6793,0.6834,0.6841,0.6879,0.6856,0.6773,0.6903,0.6904,0.6878,0.6702,0.667,0.6653,0.6803,0.6801,0.6799,0.67,0,0.6623,0.6592,0.6644,0.66,0.6593,0.6663,0.6645,0.6665,0.6694,0.669,0.6722,0.6716,0.677,0.6775,0.6756,0.6787,0.6739,0.6795,0.6787,0.6786,0.6779,0.6637,0.6603,0.6508,0.6688,0.6686,0.6685,0,0.6499,0.6512,0.6468,0.651,0.6508,0.6491,0.6504,0.6501,0.6525,0.6547,0.6556,0.6602,0.6582,0.6641,0.6615,0.6652,0.6652,0.6667,0.6664,0.6665,0.673,0.6634,0.6479,0.6465,0.6666,0.6668,0.6669,0,0.6376,0.6381,0.6356,0.6365,0.6412,0.6399,0.6417,0.6445,0.6448,0.6458,0.6461,0.6468,0.6472,0.6476,0.6522,0.6561,0.6491,0.6553,0.6508,0.6506,0.6489,0.649,0.6332,0.6489,0.6489,0.6489,0.649,0,0.6256,0.6227,0.6301,0.6285,0.6254,0.6314,0.6281,0.6307,0.6331,0.632,0.6381,0.6369,0.6431,0.6426,0.6462,0.6435,0.6436,0.6453,0.6463,0.6448,0.6445,0.6448,0.6456,0.6486,0.6487,0.6487,0.6488,0,0.6112,0.6161,0.6139,0.6187,0.6198,0.6173,0.6213,0.62,0.6233,0.6219,0.622,0.6271,0.6268,0.6315,0.6321,0.6345,0.6302,0.6323,0.6294,0.6301,0.6253,0.6257,0.6092,0.6073,0.6241,0.624,0.6238,0,0.6033,0.6013,0.6059,0.6058,0.6074,0.6071,0.6075,0.6132,0.6133,0.616,0.6143,0.6146,0.6152,0.6144,0.618,0.6185,0.6207,0.6149,0.6208,0.6194,0.6206,0.6207,0.6205,0.6136,0.6134,0.6132,0.6131,0,0.5887,0.5913,0.5917,0.593,0.5933,0.5945,0.5961,0.5956,0.6019,0.6016,0.6016,0.602,0.6028,0.6029,0.6042,0.6059,0.6105,0.6112,0.6102,0.6086,0.607,0.6078,0.626,0.6115,0.6117,0.6118,0.6119,0.612,0.5774,0.5759,0.579,0.5793,0.5811,0.5825,0.5815,0.5848,0.585,0.5862,0.5895,0.5889,0.5914,0.5935,0.5949,0.5944,0.5972,0.5957,0.5954,0.5949,0.594,0.6071,0.5946,0.5947,0.5947,0.5948,0.5948,0,0.5631,0.5655,0.5657,0.5679,0.568,0.5726,0.5746,0.5744,0.5738,0.5759,0.5764,0.5763,0.5765,0.5803,0.5809,0.5798,0.5819,0.5798,0.5799,0.5802,0.5914,0.5923,0.5781,0.5781,0.5781,0.5781,0.5781,0.5781,0.5557,0.5535,0.5564,0.5552,0.5576,0.5572,0.5579,0.5592,0.5609,0.5606,0.5609,0.5635,0.5662,0.5671,0.5675,0.5686,0.5685,0.5656,0.5674,0.5778,0.5794,0.581,0.5818,0.5656,0.5656,0.5563,0.5562,0.5561]}]]